{"data":{"norad_id":66217,"intl_designator":"2025-244M","name":"STARLINK-35700","alt_names":[],"object_type":"PAYLOAD","status":"ACTIVE","operator":null,"country":"US","launch_date":"2025-10-28","launch_site_code":"AFWTR","launch_vehicle":null,"mission":null,"orbit_class":"UNKNOWN","rcs_meters":null,"size_class":null,"mass_kg":null,"dimensions":null,"purposes":["comms"],"wikipedia_slug":null,"has_3d_model":false,"image_url":null,"decayed_at":null,"tle_current":{"epoch":"2026-09-20T14:28:27.598080Z","epoch_age_seconds":87783,"freshness":"FRESH","line1":"1 66217U 25244M   26263.60309720  .00022793  00000+0  68334-3 0  9994","line2":"2 66217  53.1598  43.0011 0000795  59.9123 300.1959 15.34416143 51515","mean_motion":15.34416143,"eccentricity":7.95e-5,"inclination_deg":53.1598,"raan_deg":43.0011,"arg_perigee_deg":59.9123,"mean_anomaly_deg":300.1959,"bstar":0.00068334,"rev_number":5151,"period_min":93.846770745294,"perigee_km":462.11141724509,"apogee_km":463.19910321446,"semimajor_km":6840.7922602298,"source":"CELESTRAK","updated_at":"2026-09-21T09:00:35.841856Z"}}}